Miscellaneous Local Product
Issued by NWS Hastings, NE

Home | Current Version | Previous Version | Text Only | Print | Product List | Glossary Off
Versions: 1 2 3 4 5 6 7 8 9 10 11 12 13 14 15 16 17 18 19 20 21 22 23 24 25 26 27 28 29 30 31 32 33 34 35 36 37 38 39 40 41 42 43 44 45 46 47 48 49 50

000
AXUS43 KGID 191702
MISGRI

GID CWA HOURLY WEATHER ROUNDUP
NATIONAL WEATHER SERVICE HASTINGS NE
1200 PM CDT TUE AUG 19 2014

NOTE: "FAIR" INDICATES FEW OR NO CLOUDS BELOW 12,000 FEET WITH NO
SIGNIFICANT WEATHER AND/OR OBSTRUCTIONS TO VISIBILITY.

...SOUTH CENTRAL NEBRASKA...

CITY           SKY/WX    TMP DP  RH WIND       PRES   REMARKS
GRAND ISLAND   SUNNY     82  64  54 E7        29.88F
HASTINGS       SUNNY     83  65  54 S8        29.87F
KEARNEY        SUNNY     82  63  51 E6        29.88F
ORD            SUNNY     81  60  48 E8        29.86F
AURORA         SUNNY     83  66  57 SE6       29.88S
LEXINGTON      SUNNY     82  65  55 CALM      29.88F
HOLDREGE       SUNNY     82  59  46 SE7       29.88F
HEBRON         SUNNY     85  67  54 CALM      29.86S

...NEBRASKA PANHANDLE...

CITY           SKY/WX    TMP DP  RH WIND       PRES   REMARKS
CHADRON        SUNNY     86  55  34 VRB6      29.83F
ALLIANCE       SUNNY     82  55  39 S12       29.89F
SCOTTSBLUFF    MOSUNNY   80  60  50 E12       29.89F
SIDNEY         SUNNY     84  53  34 SE7       29.94S

...WESTERN AND NORTH CENTRAL NEBRASKA...

CITY           SKY/WX    TMP DP  RH WIND       PRES   REMARKS
VALENTINE      SUNNY     84  58  40 S10       29.86F
AINSWORTH      SUNNY     81  58  45 SE7       29.88S
ONEILL         SUNNY     81  61  50 E6        29.88S
BROKEN BOW     SUNNY     82  64  54 SE9       29.88F
IMPERIAL       SUNNY     81  57  43 VRB7      29.89F
NORTH PLATTE   SUNNY     83  59  44 CALM      29.87F
MCCOOK         SUNNY     83  59  44 VRB5      29.88F

...EASTERN NEBRASKA...

CITY           SKY/WX    TMP DP  RH WIND       PRES   REMARKS
NORFOLK        SUNNY     82  60  47 CALM      29.86F
SO SIOUX CITY  SUNNY     81  65  58 VRB5      29.84R
TEKAMAH        SUNNY     81  65  58 VRB6      29.84F
COLUMBUS         N/A    N/A N/A N/A MISG        N/A
ALBION         SUNNY     80  59  48 SE6       29.87F
OMAHA EPPLEY   SUNNY     85  62  46 NW5       29.84S
OFFUTT AFB     SUNNY     84  64  50 NW3       29.84S
MILLARD        SUNNY     84  63  49 CALM      29.84S
LINCOLN        SUNNY     85  61  44 N5        29.86S
NEBRASKA CITY  SUNNY     83  63  52 CALM      29.85F
BEATRICE       SUNNY     84  69  61 E6        29.85F
FALLS CITY     SUNNY     87  69  54 CALM      29.83F HX  91

...NORTHERN KANSAS...

CITY           SKY/WX    TMP DP  RH WIND       PRES   REMARKS
GOODLAND       PTSUNNY   79  56  45 CALM      29.92F
HILL CITY      MOSUNNY   83  63  50 VRB6      29.87F
NORTON         SUNNY     84  55  37 S5        29.87F
PHILLIPSBURG   SUNNY     82  63  51 SE7       29.87S HAZE
SMITH CENTER   SUNNY     84  57  39 W3        29.87F
BELOIT           N/A     84  66  54 CALM      29.85S
HAYS           MOSUNNY   90  63  40 SE8       29.88R HX  90
RUSSELL        MOSUNNY   89  59  36 SE7G21    29.86S
CONCORDIA      SUNNY     84  72  67 NE6       29.85F
SALINA         SUNNY     87  67  51 S9        29.87S HX  90
TOPEKA         SUNNY     89  72  56 N3        29.83F HX  96



USA.gov is the U.S. government's official web portal to all federal, state and local government web resources and services.